Погода в Лехе

Индия     34°08′41″N   77°33′22″E
темп.,
°C
ветер,
м/с
пор.,
м/с
влажн.,
%
обл.,
%
осадки,
мм/ч
давл.,
гПа
погр.,
м
8 марта, пн
пн823:30−12з229088 0.3 1023121
02:30−12з2295100 0.3 102499
05:30−16зсз1292100 0.5 1026107
08:30−14зюз128816 0.0 1029141
11:30−10юз338054 0.1 1024477
14:30−8юз226082 0.0 1021726
17:30−11юз226185 0.0 1022320
20:30−11з119299 0.2 1029108
9 марта, вт
вт923:30−11ююз3396100 1.3 103388
02:30−15ююз1197100 0.8 103557
05:30−18ююв1197100 0.9 103872
08:30−17в119198 0.0 1037147
11:30−13ююв227692 0.0 1029297
14:30−10ю22630 0.0 1025374
17:30−11ю116337 0.0 1025121
20:30−14с117262 0.0 103032
10 марта, ср
ср1023:30−15св117980 0.0 103235
02:30−17св118299 0.0 103335
05:30−18св228099 0.0 103332
08:30−15в127452 0.0 1033135
11:30−11ююв236442 0.0 1026422
14:30−8ююв235372 0.0 1021700
17:30−10юв126585 0.0 1021262
20:30−13зюз128086 0.0 102784
11 марта, чт
чт1123:30−13юз229491 0.3 103181
02:30−15ююз119499 0.3 103478
05:30−16вюв2291100 0.3 103691
08:30−15вюв227991 0.0 1034150
11:30−11ююв336387 0.0 1026452
14:30−8юв2353100 0.0 1022560
17:30−8зюз335590 0.0 1022232
20:30−12ююв2266100 0.0 102640
12 марта, пт
пт1223:30−12ююв2267100 0.0 102891
02:30−13в1277100 0.3 1027141
05:30−14в3366100 0.5 102851
08:30−12вюв227199 0.0 1028210
11:30−8ююв336299 0.0 1024534
14:30−6ююв3357100 0.0 1020663
17:30−8ююв0168100 0.1 1021186
20:30−12ююз1290100 0.1 102670